527  
ASUS44 KMOB 230012  
RWRMOB  
REGIONAL WEATHER ROUNDUP  
NATIONAL WEATHER SERVICE MOBILE AL  
700 PM CDT WED MAR 22 2017  
 
NOTE: "FAIR" INDICATES FEW OR NO CLOUDS BELOW 12,000 FEET WITH NO  
SIGNIFICANT WEATHER AND/OR S TO VISIBILITY
.  
 
* THESE STATIONS ARE PART OF THE UNIVERSITY OF SOUTH ALABAMA  
MESONET AND ARE NOT UNDER NWS OR FAA QUALITY CONTROL.
 
 
ALZ061>064-230100-  
COASTAL ALABAMA  
 
CITY SKY/WX TMP DP RH WIND PRES REMARKS
 
MOBILE REG APT MOCLDY 79 52 38 N5 30.10R  
6HR MIN TEMP: 79; 6HR MAX TEMP: 88;  
 
BROOKLEY FIELD PTCLDY 78 64 61 S3 30.10R  
6HR MIN TEMP: 78; 6HR MAX TEMP: 85;  
 
USA CAMPUS* N/A 77 55 47 CALM 30.10R  
DOG RIVER* N/A 75 66 73 SW2 30.87R  
 
 
CITY SKY/WX TMP DP RH WIND PRES REMARKS
 
GULF SHORES CLEAR 71 68 90 W8 30.09R  
 

 
 
ALZ051>060-230100-  
INTERIOR SOUTHWEST AND SOUTH CENTRAL ALABAMA  
 
CITY SKY/WX TMP DP RH WIND PRES REMARKS
 
GREENVILLE MOCLDY 74 49 41 N6 30.12R  
6HR MIN TEMP: 74; 6HR MAX TEMP: 83;  
 
EVERGREEN MOCLDY 76 53 44 N7 30.11R  
6HR MIN TEMP: 76; 6HR MAX TEMP: 86;  
 
ATMORE* N/A 77 55 47 N13 30.11R  
ANDALUSIA/OPP PTCLDY 79 51 37 N8 30.10R  
6HR MIN TEMP: 79; 6HR MAX TEMP: 90;  
 
ANDALUSIA* N/A 77 52 41 NE3 30.10R  
FLORALA APT PTCLDY 77 53 43 N7 30.11R  
6HR MIN TEMP: 77; 6HR MAX TEMP: 87;  
 
FLORALA* N/A 79 54 41 W6 30.81R  
 

 
 
FLZ001>006-230100-  
WESTERN FLORIDA PANHANDLE  
 
CITY SKY/WX TMP DP RH WIND PRES REMARKS
 
PENSACOLA PTCLDY 74 65 73 SW5 30.07R  
6HR MIN TEMP: 74; 6HR MAX TEMP: 90;  
 
NAS PENSACOLA MOCLDY 77 61 57 W3 30.07R  
6HR MIN TEMP: 75; 6HR MAX TEMP: 89;  
 
MILTON MOCLDY 79 52 38 N3 30.08R  
6HR MIN TEMP: 79; 6HR MAX TEMP: 88;  
 
WHTNG S FIELD MOCLDY 82 53 36 N7 30.08R  
6HR MIN TEMP: 82; 6HR MAX TEMP: 91;  
 
 
CITY SKY/WX TMP DP RH WIND PRES REMARKS
 
JAY* N/A 79 52 38 NE6 30.09R  
DUKE FIELD MOCLDY 81 49 33 NW6 30.07R  
CRESTVIEW CLEAR 80 51 36 N3 30.08R  
6HR MIN TEMP: 80; 6HR MAX TEMP: 90;  
 
VALPARAISO MOCLDY 72 65 79 SE2 30.06R  
6HR MIN TEMP: 72; 6HR MAX TEMP: 85;  
 
DESTIN CLEAR 73 70 90 SW7 30.07R  
6HR MIN TEMP: 73; 6HR MAX TEMP: 81;  
 

 
 
MSZ076-079-230100-  
INTERIOR SOUTHEAST MISSISSIPPI  
 
CITY SKY/WX TMP DP RH WIND PRES REMARKS
 
LEAKESVILLE* N/A 79 55 44 CALM 30.10R  
AGRICOLA* N/A 79 54 41 CALM 30.09R  
 

 
 
MARINE OBSERVATIONS  
 
STATION/POSITION TIME TEMP WIND PRES WAVE
 
AIR SEA DIR/SP/G HT/PER  
(UTC) (F) (DEG/KT/KT) (MB) (FT/S)  
PASCAGOULA 2348 73 260/ 9/ 14 1019.0R  
PETIT BOIS ISLND 2348 70 240/ 8/ 10 1019.9R  
GRAND BAY 2245 76 250/ 9 1019.0S  
KATRINA CUT 2330 190/ 4 1019.3R  
CEDAR POINT 2330 72 260/ 13 1019.0R  
E DAUPHIN ISLAND 2300 71 220/ 8/ 10 1018.3R  
MIDDLE BAY LIGHT 2330 71 210/ 12 1019.0R  
USCG MOBILE BAY 2348 79 70 350/ 4/ 6 1019.3R  
STATE DOCKS 2348 1018.7R  
MEAHER PARK 2330 76 180/ 5 1018.3R  
WEEKS BAY 2245 77 N/A  
FORT MORGAN 2348 70 260/ 14/ 15 N/A  
12 S ORANGE BCH 2250 70 69 260/ 14/ 16 1017.9R 2/ 4  
PENSACOLA BAY 2348 210/ 6/ 8 1018.5R  
64 S DAUPHIN ISL 2350 71 73 270/ 10/ 12 1019.8R 1/ 4  
67 S FORT MORGAN 2330 71 CALM 1019.6R  
 

 
 
SELECTED LOCATIONS ACROSS THE REGION  
 
CITY SKY/WX TMP DP RH WIND PRES REMARKS
 
NEW ORLEANS MOCLDY 78 59 51 CALM 30.12R  
GULFPORT PTCLDY 77 65 66 SW6 30.09R  
PASCAGOULA AP PTCLDY 74 62 66 SW5 30.09R  
PASCAGOULA* NOT AVBL  
HATTIESBURG PTCLDY 80 54 40 NW5 30.10S  
LAUREL PTCLDY 79 55 44 NW5 30.13R  
MERIDIAN CLEAR 74 54 49 NE12 30.15R  
JACKSON CLEAR 75 57 53 N6 30.13R  
MONTGOMERY CLOUDY 74 45 35 N10 30.15R  
TROY MOCLDY 74 52 46 N8 30.13R  
ASHFORD* N/A 77 52 41 NE3 30.10R  
DOTHAN CLEAR 76 51 41 NE12 30.13R  
PANAMA CITY CLEAR 74 61 63 SW6 30.06R  
 

 
 
 
 
CLICK HERE TO GO TO PREVIOUS BULLETINS.

The Nexlab AL Page
The Nexlab FL Page
The Nexlab MS Page Main Text Page